Orbital Elements at Epoch 2459000.5 (2020-May-31.0) TDB
Reference: JPL 28 (heliocentric ecliptic J2000)
Element | Value | Uncertainty (1-sigma) | Units |
e | .1496903289680387 | 3.7856e-08 | |
a | 2.283388955771857 | 7.9584e-09 | au |
q | 1.941587711820382 | 8.7038e-08 | au |
i | 4.563826233810649 | 4.2218e-06 | deg |
node | 342.2049791918589 | 3.8879e-05 | deg |
peri | 344.8398603522164 | 4.0534e-05 | deg |
M | 84.09755045724155 | 1.0271e-05 | deg |
tp | 2458706.092332548417 (2019-Aug-10.59233255) | 3.6128e-05 | TDB |
period | 1260.283560059905 3.45 | 6.5888e-06 1.804e-08 | d yr |
n | .285650000848133 | 1.4934e-09 | deg/d |
Q | 2.625190199723333 | 9.1497e-09 | au |
|
| | Orbit Determination Parameters
Additional Information
|